Regional Weather Roundup
Issued by NWS Green Bay, WI

Home | Current Version | Previous Version | Text Only | Print | Product List | Glossary On
Versions: 1 2 3 4 5 6 7 8 9 10 11 12 13 14 15 16 17 18 19 20 21 22 23 24 25 26 27 28 29 30 31 32 33 34 35 36 37 38 39 40 41 42 43 44 45 46 47 48 49 50
491
ASUS43 KGRB 280811
RWRGRB

NORTH-CENTRAL AND NORTHEAST WISCONSIN REGIONAL WEATHER ROUNDUP
NATIONAL WEATHER SERVICE GREEN BAY WI
300 AM CDT SUN AUG 28 2016

WIZ005-009-010>012-018-019-280900-
NORTH CENTRAL WISCONSIN

CITY           SKY/WX    TMP DP  RH WIND       PRES   REMARKS
IRONWOOD       CLOUDY    61  61 100 W5        30.10R
MANITOWISH WTR CLOUDY    61  61 100 W3        30.11R
ARBOR VITAE    MOCLDY    62  60  94 W3        30.12R
EAGLE RIVER    CLOUDY    62  62 100 W6        30.11R
LAND O LAKES   CLOUDY    62  62  98 CALM      30.11S
RHINELANDER    CLOUDY    63  63 100 W7        30.12R
PHILLIPS       CLOUDY    61  61 100 CALM      30.11S
ANTIGO         CLOUDY    62  62  99 CALM      30.13R
TOMAHAWK       CLOUDY    61  60  96 CALM      30.13R
MERRILL        PTCLDY    61  61 100 W3        30.13R
$$

WIZ013-073-280900-
NORTHEAST WISCONSIN

CITY           SKY/WX    TMP DP  RH WIND       PRES   REMARKS
IRON MOUNTAIN  CLOUDY    62  59  90 CALM      30.08R
MARINETTE      CLOUDY   N/A N/A N/A W3        30.10R
OCONTO         CLOUDY    63  62  97 SW3       30.10R
$$

WIZ017-030-035>037-045-280900-
CENTRAL WISCONSIN

CITY           SKY/WX    TMP DP  RH WIND       PRES   REMARKS
MEDFORD        CLOUDY    61  61 100 W5        30.13R FOG
WAUSAU         CLOUDY    63  61  93 W8        30.11R
MOSINEE        CLOUDY    63  63 100 W6        30.13S
MARSHFIELD     PTCLDY    63  60  90 SW5       30.12R
WISC RAPIDS    FOG       65  65 100 W5        30.14R VSB 1
STEVENS POINT  CLOUDY    63  63  98 W5        30.13R
WAUPACA        CLOUDY    65  64  98 CALM      30.13R FOG
SHAWANO        CLOUDY    65  63  94 SW5       30.12R FOG
CLINTONVILLE   CLOUDY    63  63 100 W3        30.11R FOG
WAUTOMA        FOG       64  64 100 W6        30.13R VSB 1
$$

WIZ038-039-048-051-280900-
FOX VALLEY

CITY           SKY/WX    TMP DP  RH WIND       PRES   REMARKS
NWS GREEN BAY  FOG       62  62 100 MISG      30.11R VSB 3/4
APPLETON       FOG       63  63 100 SW6       30.10R VSB 1/4
OSHKOSH        FOG       63  63 100 SW3       30.11R VSB 1/2
FOND DU LAC    FOG       64  63  96 SW5       30.12S VSB 1/4
$$

WIZ022-050-052-280900-
EAST CENTRAL WISCONSIN

CITY           SKY/WX    TMP DP  RH WIND       PRES   REMARKS
EPHRAIM        CLOUDY    64  62  93 W5        30.09R
WASHINGTON ISL NOT AVBL
STURGEON BAY   CLEAR     63  62  97 W7        30.11R
MANITOWOC      FOG       64  63  94 CALM      30.11R VSB 3/4
SHEBOYGAN      CLEAR     61  60  97 W5        30.12R FOG
$$

LMZ563-521-522-541>543-280900-
LAKESHORE

STATION/POSITION TIME  TEMP    WIND        PRES    VSBY  WAVE
                       AIR SEA DIR/SP/G                  HT/PER
                 (UTC) (F)     (DEG/KT/KT) (MB)    (MI)  (FT/S)
SHEBOYGAN LKSHOR 0800   64     240/  5/  5 1019.4R
KEWAUNEE LKSHORE 0700   64     300/  2/  5 1018.2F
NORTHPORT PIER   0700   66     270/  5/  9 1018.3S
N MID LAKE BUOY  0750   67 70  270/ 16/ 17 1017.8R         1/ 4
S GREEN BAY BUOY 0700   67 71  240/  8/  8 1018.2R
SISTER BAY LKSHO 0707   67     300/ 16/ 19   N/A
CHAMBERS ISLAND  0700   66     240/  5/  8 1018.6R
MENOMINEE LKSHOR 0700   65     230/  5/  6 1017.9R
$$




USA.gov is the U.S. government's official web portal to all federal, state and local government web resources and services.